sat.trackr.live / text

‹ back to catalog

STARLINK-36110

NORAD 66945 · 2025-286W

PAYLOAD ACTIVE UNKNOWN

§ Identity

Operator
Country
US
Launch date
2025-12-07
Launch site
AFWTR
Launch vehicle
Mass (kg)
RCS (m²)

Purposes: comms

External: N2YO · Heavens-Above · Gunter

§ Orbital elements

Epoch: 2026-09-20T03:47:37.197888Z

Period
93.85 min
Inclination
53.1581°
Eccentricity
0.0001144
Mean motion
15.34407255 rev/d
Perigee alt
461.9 km
Apogee alt
463.5 km
Semi-major
6,840.8 km
B*
7.6719e-4
RAAN
171.4156°
Arg perigee
98.2389°
Mean anomaly
261.8743°
Rev number
4,524

§ Raw data

STARLINK-361101 66945U 25286W   26263.15806942  .00025639  00000+0  76719-3 0  99942 66945  53.1581 171.4156 0001144  98.2389 261.8743 15.34407255 45241

JSON: /api/v1/satellites/66945 · /tle

For live sub-satellite position, see the globe view (requires WebGL).

§ Visibility from observer

Set your observer location to see the next 7 days of passes ≥ 10°. The values pass through the URL so the page stays shareable.

No JS? Fill the form by hand. The geolocation button needs JavaScript.